Regional Weather Roundup
Issued by NWS Little Rock, AR

Home | Current Version | Previous Version | Graphics & Text | Print | Product List | Glossary On
Versions: 1 2 3 4 5 6 7 8 9 10 11 12 13 14 15 16 17 18 19 20 21 22 23 24 25 26 27 28 29 30 31 32 33 34 35 36 37 38 39 40 41 42 43 44 45 46 47 48 49 50
000
ASUS44 KLZK 040905
RWRLZK

WEATHER ROUNDUP FOR ARKANSAS
NATIONAL WEATHER SERVICE LITTLE ROCK AR
400 AM CDT FRI SEP 04 2015

NOTE: "FAIR" INDICATES FEW OR NO CLOUDS BELOW 12,000 FEET WITH NO
SIGNIFICANT WEATHER AND/OR OBSTRUCTIONS TO VISIBILITY.

ARZ001-003-010-029-041000-
NORTHWEST ARKANSAS

CITY           SKY/WX    TMP DP  RH WIND       PRES   REMARKS
FAYETTEVILLE   CLEAR     67  67 100 CALM      29.99S FOG
FORT SMITH     CLEAR     73  68  84 E5        29.94S
HARRISON       CLEAR     68  67  96 SE3       30.01R
BENTONVILLE    CLEAR     70  64  83 SE5       29.99S
ROGERS         PTCLDY    71  68  90 SE6       30.00S
SILOAM SPGS    CLEAR     70  63  78 SE3       29.97R
HIGHFILL       CLEAR     68  67  96 CALM      29.98S
$$

ARZ004-005-016-041000-
NORTH CENTRAL ARKANSAS

CITY           SKY/WX    TMP DP  RH WIND       PRES   REMARKS
BATESVILLE     CLEAR     70  68  94 CALM      29.97S
FLIPPIN        CLEAR     70  63  78 CALM      29.97S
MTN HOME       CLEAR     70  67  90 CALM      29.99R
$$

ARZ040-041-041000-
WEST CENTRAL ARKANSAS

CITY           SKY/WX    TMP DP  RH WIND       PRES   REMARKS
MENA           PTCLDY    68  66  94 CALM      29.98S
MOUNT IDA      CLEAR     69  67  93 CALM      29.95R FOG
$$

ARZ009-017-025-026-028-041000-
NORTHEAST ARKANSAS

CITY           SKY/WX    TMP DP  RH WIND       PRES   REMARKS
JONESBORO      CLEAR     69  68  96 CALM      29.96S
NEWPORT        CLEAR     73  71  93 NW3       29.98R
WALNUT RIDGE   CLEAR     70  66  88 N5        29.97S
BLYTHEVILLE    CLEAR     71  71 100 N5        29.97R
$$

ARZ022-023-033-042-044-041000-
CENTRAL ARKANSAS

CITY           SKY/WX    TMP DP  RH WIND       PRES   REMARKS
LITTLE ROCK    CLEAR     74  69  85 CALM      29.95S
N LITTLE ROCK    N/A     75  70  83 E3        29.95S
JACKSONVILLE   CLEAR     70  68  92 CALM      29.95R
SEARCY         CLEAR     70  69  97 CALM      29.97S
HOT SPRINGS    CLEAR     74  69  85 CALM      29.96R
RUSSELLVILLE   CLEAR     71  69  93 CALM      29.95R
$$

ARZ036-041000-
EAST ARKANSAS

CITY           SKY/WX    TMP DP  RH WIND       PRES   REMARKS
WEST MEMPHIS   CLEAR     72  72 100 CALM      29.95R
$$

ARZ050-053-066-070-073-041000-
SOUTHWEST ARKANSAS

CITY           SKY/WX    TMP DP  RH WIND       PRES   REMARKS
ARKADELPHIA    FAIR      70  70 100 CALM      29.94R FOG
CAMDEN         CLEAR     70  66  88 SW3       29.93R FOG
TEXARKANA      CLEAR     75  68  78 CALM      29.93R
EL DORADO      CLEAR     71  68  90 CALM      29.93R
DE QUEEN       CLEAR     69  68  96 CALM      29.92R FOG
$$

ARZ056-057-069-041000-
SOUTHEAST ARKANSAS

CITY           SKY/WX    TMP DP  RH WIND       PRES   REMARKS
PINE BLUFF     CLEAR     73  69  87 CALM      29.94S
STUTTGART      CLEAR     75  66  73 NE5       29.95S
MONTICELLO     CLEAR     74  71  91 CALM      29.94S

$$




USA.gov is the U.S. government's official web portal to all federal, state and local government web resources and services.